This is the latest recevied weather packets stored in our database for station/object KN6DHD. If no packets are shown the sender has not sent any weather packets the latest 10 day(s).
| Time | Temp. | Humidity | Pressure | Rain* | Wind** | Luminosity | Snow |
|---|---|---|---|---|---|---|---|
| 1777399789 | 18.33° C | 67% | 1021 hPa | 0 mm | - | 62 W/m² | - |
| 1777399480 | 17.78° C | 69% | 1021 hPa | 0 mm | - | 70 W/m² | - |
| 1777399178 | 17.22° C | 70% | 1021 hPa | 0 mm | - | 72 W/m² | - |
| 1777398875 | 17.22° C | 68% | 1021.1 hPa | 0 mm | - | 59 W/m² | - |
| 1777398572 | 17.22° C | 69% | 1021.3 hPa | 0 mm | - | 58 W/m² | - |
| 1777398268 | 17.22° C | 71% | 1021.1 hPa | 0 mm | - | 59 W/m² | - |
| 1777397965 | 16.67° C | 70% | 1021.2 hPa | 0 mm | - | 59 W/m² | - |
| 1777397661 | 16.67° C | 73% | 1021.2 hPa | 0 mm | - | 75 W/m² | - |
| 1777397357 | 16.67° C | 73% | 1021 hPa | 0 mm | - | 59 W/m² | - |
| 1777397054 | 16.11° C | 73% | 1021.2 hPa | 0 mm | - | 320 W/m² | - |
| 1777396751 | 16.11° C | 74% | 1021 hPa | 0 mm | - | 58 W/m² | - |
| 1777396447 | 16.11° C | 75% | 1021.1 hPa | 0 mm | - | 58 W/m² | - |
| 1777396144 | 15.56° C | 76% | 1021.4 hPa | 0 mm | - | 57 W/m² | - |
| 1777395840 | 15.56° C | 76% | 1021.1 hPa | 0 mm | - | 57 W/m² | - |
| 1777395535 | 15.56° C | 78% | 1021.3 hPa | 0 mm | - | 57 W/m² | - |
| 1777395232 | 15.56° C | 78% | 1021.2 hPa | 0 mm | - | 58 W/m² | - |
| 1777394930 | 15° C | 80% | 1021.2 hPa | 0 mm | - | 57 W/m² | - |
| 1777394625 | 15° C | 81% | 1021.3 hPa | 0 mm | - | 56 W/m² | - |
| 1777394322 | 15° C | 81% | 1021.3 hPa | 0 mm | - | 56 W/m² | - |
| 1777394018 | 14.44° C | 82% | 1021.4 hPa | 0 mm | - | 55 W/m² | - |
| 1777393719 | 14.44° C | 82% | 1021.3 hPa | 0 mm | - | 54 W/m² | - |
| 1777393414 | 13.89° C | 83% | 1021.2 hPa | 0 mm | - | 54 W/m² | - |
| 1777393111 | 13.89° C | 83% | 1021.5 hPa | 0 mm | - | 53 W/m² | - |
| 1777392806 | 13.89° C | 83% | 1021.3 hPa | 0 mm | - | 52 W/m² | - |
| 1777392503 | 13.89° C | 84% | 1021.4 hPa | 0 mm | - | 55 W/m² | - |
* Rain latest hour (hover to see other rain measurements)
** Current wind speed in m/s (hover to see current wind gust speed)